| time (UTC) | temp F | wind direction | speed MPH | gust MPH | rain 1hr in | rain 24hr in | rain mn in | humidity % | barometer mb |
| 20260508034914 | 53 | 273 | 0.0 | 0.0 | 0.00 | 0.00 | 0.00 | 87 | 1016.7 |
| 20260508034413 | 53 | 273 | 0.0 | 0.0 | 0.00 | 0.00 | 0.00 | 86 | 1016.7 |
| 20260508033914 | 53 | 273 | 0.0 | 0.0 | 0.00 | 0.00 | 0.00 | 85 | 1016.6 |
| 20260508033414 | 53 | 273 | 0.0 | 0.0 | 0.00 | 0.00 | 0.00 | 85 | 1016.6 |
| 20260508032913 | 53 | 273 | 0.0 | 0.0 | 0.00 | 0.00 | 0.00 | 85 | 1016.6 |
| 20260508032413 | 53 | 273 | 0.0 | 0.0 | 0.00 | 0.00 | 0.00 | 84 | 1016.6 |
| 20260508031913 | 54 | 273 | 0.0 | 0.0 | 0.00 | 0.00 | 0.00 | 84 | 1016.7 |
| 20260508031413 | 54 | 273 | 0.0 | 0.0 | 0.00 | 0.00 | 0.00 | 84 | 1016.9 |
| 20260508030914 | 54 | 273 | 0.0 | 0.0 | 0.00 | 0.00 | 0.00 | 84 | 1016.9 |
| 20260508030413 | 54 | 273 | 0.0 | 0.0 | 0.00 | 0.00 | 0.00 | 84 | 1016.7 |
| 20260508025913 | 54 | 273 | 0.0 | 0.0 | 0.00 | 0.00 | 0.00 | 84 | 1016.7 |
| 20260508024913 | 55 | 273 | 0.0 | 0.0 | 0.00 | 0.00 | 0.00 | 83 | 1016.7 |
| 20260508023913 | 55 | 273 | 0.0 | 0.0 | 0.00 | 0.00 | 0.00 | 81 | 1016.7 |
| 20260508022913 | 55 | 273 | 0.0 | 0.0 | 0.00 | 0.00 | 0.00 | 80 | 1016.5 |
| 20260508022413 | 56 | 273 | 0.0 | 0.0 | 0.00 | 0.00 | 0.00 | 80 | 1016.4 |
| 20260508021913 | 56 | 273 | 0.0 | 0.0 | 0.00 | 0.00 | 0.00 | 80 | 1016.4 |
| 20260508020913 | 56 | 273 | 0.0 | 0.0 | 0.00 | 0.00 | 0.00 | 79 | 1016.2 |
| 20260508020413 | 56 | 273 | 0.0 | 0.0 | 0.00 | 0.00 | 0.00 | 79 | 1016.3 |
| 20260508015912 | 56 | 273 | 0.0 | 0.0 | 0.00 | 0.00 | 0.00 | 80 | 1016.2 |
| 20260508015412 | 57 | 273 | 0.0 | 0.0 | 0.00 | 0.00 | 0.00 | 80 | 1016.2 |
| 20260508014913 | 57 | 273 | 0.0 | 0.0 | 0.00 | 0.00 | 0.00 | 79 | 1016.2 |
| 20260508014412 | 57 | 273 | 0.0 | 0.0 | 0.00 | 0.00 | 0.00 | 76 | 1016.1 |
| 20260508013913 | 57 | 273 | 0.0 | 0.0 | 0.00 | 0.00 | 0.00 | 76 | 1016.0 |
| 20260508013412 | 58 | 273 | 0.0 | 0.0 | 0.00 | 0.00 | 0.00 | 75 | 1016.0 |
| 20260508012912 | 58 | 273 | 0.0 | 0.0 | 0.00 | 0.00 | 0.00 | 75 | 1016.0 |
| 20260508012412 | 58 | 273 | 0.0 | 0.0 | 0.00 | 0.00 | 0.00 | 74 | 1016.0 |
| 20260508011912 | 58 | 273 | 0.0 | 0.0 | 0.00 | 0.00 | 0.00 | 72 | 1015.9 |
| 20260508011413 | 59 | 273 | 0.0 | 0.0 | 0.00 | 0.00 | 0.00 | 72 | 1016.0 |
| 20260508010913 | 59 | 273 | 0.0 | 0.0 | 0.00 | 0.00 | 0.00 | 70 | 1015.9 |
| 20260508010412 | 59 | 273 | 0.0 | 0.0 | 0.00 | 0.00 | 0.00 | 73 | 1016.0 |
| 20260508005412 | 60 | 273 | 0.0 | 0.0 | 0.00 | 0.00 | 0.00 | 72 | 1015.8 |
| 20260508004912 | 60 | 273 | 0.0 | 0.0 | 0.00 | 0.00 | 0.00 | 72 | 1015.8 |
| 20260508004412 | 60 | 273 | 0.0 | 0.0 | 0.00 | 0.00 | 0.00 | 68 | 1015.8 |
| 20260508003912 | 61 | 273 | 0.0 | 0.0 | 0.00 | 0.00 | 0.00 | 67 | 1015.9 |
| 20260508003412 | 61 | 273 | 0.0 | 0.0 | 0.00 | 0.00 | 0.00 | 67 | 1015.9 |
| 20260508002412 | 62 | 273 | 0.0 | 0.0 | 0.00 | 0.00 | 0.00 | 67 | 1015.9 |
| 20260508001912 | 63 | 273 | 0.0 | 0.0 | 0.00 | 0.00 | 0.00 | 66 | 1015.9 |
| 20260508001412 | 64 | 273 | 0.0 | 2.0 | 0.00 | 0.00 | 0.00 | 56 | 1015.8 |
| 20260508000412 | 65 | 272 | 2.0 | 3.0 | 0.00 | 0.00 | 0.00 | 54 | 1015.7 |
| 20260507235912 | 65 | 330 | 0.0 | 3.0 | 0.00 | 0.00 | 0.00 | 51 | 1015.7 |
| 20260507235411 | 65 | 272 | 1.0 | 2.0 | 0.00 | 0.00 | 0.00 | 54 | 1015.4 |
| 20260507234411 | 65 | 342 | 2.0 | 4.0 | 0.00 | 0.00 | 0.00 | 52 | 1015.3 |
| 20260507233911 | 66 | 22 | 1.0 | 4.0 | 0.00 | 0.00 | 0.00 | 52 | 1015.4 |
| 20260507233411 | 66 | 342 | 1.0 | 4.0 | 0.00 | 0.00 | 0.00 | 51 | 1015.4 |
| 20260507232911 | 66 | 329 | 1.0 | 4.0 | 0.00 | 0.00 | 0.00 | 50 | 1015.5 |
| 20260507232411 | 66 | 278 | 2.0 | 4.0 | 0.00 | 0.00 | 0.00 | 50 | 1015.5 |
| 20260507231912 | 66 | 321 | 0.0 | 6.0 | 0.00 | 0.00 | 0.00 | 49 | 1015.5 |
| 20260507230911 | 67 | 268 | 0.0 | 5.0 | 0.00 | 0.00 | 0.00 | 49 | 1015.2 |
| 20260507230411 | 67 | 279 | 2.0 | 5.0 | 0.00 | 0.00 | 0.00 | 48 | 1015.3 |
| 20260507225911 | 68 | 24 | 3.0 | 5.0 | 0.00 | 0.00 | 0.00 | 48 | 1015.6 |
| 20260507225411 | 68 | 293 | 1.0 | 4.0 | 0.00 | 0.00 | 0.00 | 47 | 1015.5 |
| 20260507224911 | 68 | 61 | 0.0 | 4.0 | 0.00 | 0.00 | 0.00 | 47 | 1015.6 |
| 20260507224411 | 68 | 348 | 2.0 | 5.0 | 0.00 | 0.00 | 0.00 | 47 | 1015.5 |
| 20260507223911 | 68 | 42 | 1.0 | 5.0 | 0.00 | 0.00 | 0.00 | 48 | 1015.5 |
| 20260507223411 | 68 | 297 | 3.0 | 7.0 | 0.00 | 0.00 | 0.00 | 45 | 1015.4 |
| 20260507222911 | 68 | 288 | 1.0 | 7.0 | 0.00 | 0.00 | 0.00 | 49 | 1015.6 |
| 20260507222411 | 68 | 355 | 0.0 | 5.0 | 0.00 | 0.00 | 0.00 | 46 | 1015.4 |
| 20260507221911 | 68 | 294 | 1.0 | 5.0 | 0.00 | 0.00 | 0.00 | 49 | 1015.7 |
| 20260507221411 | 68 | 293 | 0.0 | 6.0 | 0.00 | 0.00 | 0.00 | 48 | 1015.6 |
| 20260507220911 | 68 | 9 | 2.0 | 6.0 | 0.00 | 0.00 | 0.00 | 47 | 1015.5 |
| 20260507220411 | 69 | 31 | 2.0 | 4.0 | 0.00 | 0.00 | 0.00 | 47 | 1015.5 |
| 20260507215911 | 69 | 285 | 1.0 | 3.0 | 0.00 | 0.00 | 0.00 | 47 | 1015.6 |
| 20260507213910 | 70 | 254 | 1.0 | 9.0 | 0.00 | 0.00 | 0.00 | 50 | 1015.6 |
| 20260507213411 | 69 | 304 | 1.0 | 9.0 | 0.00 | 0.00 | 0.00 | 46 | 1015.5 |
| 20260507212911 | 69 | 342 | 1.0 | 8.0 | 0.00 | 0.00 | 0.00 | 47 | 1015.5 |
| 20260507212410 | 69 | 11 | 2.0 | 8.0 | 0.00 | 0.00 | 0.00 | 45 | 1015.4 |
| 20260507211410 | 69 | 301 | 2.0 | 8.0 | 0.00 | 0.00 | 0.00 | 47 | 1015.6 |
| 20260507210911 | 69 | 19 | 5.0 | 8.0 | 0.00 | 0.01 | 0.00 | 48 | 1015.5 |
| 20260507210411 | 69 | 328 | 2.0 | 10.0 | 0.00 | 0.01 | 0.00 | 47 | 1015.5 |
| 20260507205411 | 70 | 198 | 0.0 | 7.0 | 0.00 | 0.01 | 0.00 | 48 | 1015.4 |
| 20260507204411 | 69 | 289 | 4.0 | 6.0 | 0.00 | 0.02 | 0.00 | 51 | 1015.6 |
| 20260507203410 | 70 | 341 | 1.0 | 8.0 | 0.00 | 0.02 | 0.00 | 49 | 1015.9 |
| 20260507202910 | 69 | 12 | 2.0 | 8.0 | 0.00 | 0.02 | 0.00 | 47 | 1015.8 |
| 20260507202410 | 68 | 32 | 2.0 | 6.0 | 0.00 | 0.03 | 0.00 | 48 | 1015.9 |
| 20260507201910 | 68 | 355 | 1.0 | 5.0 | 0.00 | 0.03 | 0.00 | 47 | 1016.0 |
| 20260507201410 | 68 | 313 | 4.0 | 5.0 | 0.00 | 0.04 | 0.00 | 46 | 1015.9 |
| 20260507200911 | 68 | 355 | 3.0 | 6.0 | 0.00 | 0.05 | 0.00 | 45 | 1016.1 |
| 20260507200410 | 68 | 294 | 0.0 | 8.0 | 0.00 | 0.06 | 0.00 | 48 | 1016.1 |
| 20260507195911 | 69 | 5 | 4.0 | 8.0 | 0.00 | 0.07 | 0.00 | 45 | 1016.3 |
| 20260507195410 | 69 | 335 | 2.0 | 6.0 | 0.00 | 0.07 | 0.00 | 44 | 1016.3 |
| 20260507194910 | 69 | 291 | 4.0 | 5.0 | 0.00 | 0.07 | 0.00 | 45 | 1016.3 |
| 20260507194410 | 69 | 33 | 3.0 | 8.0 | 0.00 | 0.07 | 0.00 | 46 | 1016.2 |
| 20260507193910 | 69 | 273 | 4.0 | 8.0 | 0.00 | 0.07 | 0.00 | 45 | 1016.2 |
| 20260507192910 | 70 | 355 | 5.0 | 8.0 | 0.00 | 0.07 | 0.00 | 46 | 1016.4 |
| 20260507192410 | 69 | 302 | 0.0 | 8.0 | 0.00 | 0.07 | 0.00 | 47 | 1016.4 |
| 20260507191410 | 69 | 28 | 2.0 | 8.0 | 0.00 | 0.07 | 0.00 | 44 | 1016.4 |
| 20260507190910 | 70 | 274 | 2.0 | 8.0 | 0.00 | 0.07 | 0.00 | 47 | 1016.5 |
| 20260507185910 | 68 | 26 | 4.0 | 10.0 | 0.00 | 0.07 | 0.00 | 50 | 1016.6 |
| 20260507185410 | 68 | 22 | 5.0 | 8.0 | 0.00 | 0.07 | 0.00 | 51 | 1016.7 |
| 20260507184410 | 67 | 235 | 1.0 | 11.0 | 0.00 | 0.07 | 0.00 | 48 | 1016.6 |
| 20260507183911 | 67 | 315 | 2.0 | 9.0 | 0.00 | 0.07 | 0.00 | 49 | 1016.6 |
| 20260507183409 | 67 | 13 | 1.0 | 9.0 | 0.00 | 0.07 | 0.00 | 46 | 1016.6 |
| 20260507182909 | 68 | 36 | 4.0 | 10.0 | 0.00 | 0.07 | 0.00 | 47 | 1016.7 |
| 20260507182409 | 69 | 5 | 2.0 | 10.0 | 0.00 | 0.07 | 0.00 | 50 | 1016.8 |
| 20260507181909 | 68 | 277 | 3.0 | 8.0 | 0.00 | 0.07 | 0.00 | 54 | 1016.8 |
| 20260507181409 | 68 | 300 | 2.0 | 8.0 | 0.00 | 0.07 | 0.00 | 49 | 1016.8 |
| 20260507180909 | 67 | 300 | 2.0 | 10.0 | 0.00 | 0.07 | 0.00 | 51 | 1016.8 |
| 20260507180409 | 67 | 38 | 2.0 | 10.0 | 0.00 | 0.07 | 0.00 | 50 | 1016.9 |
| 20260507175909 | 66 | 51 | 2.0 | 8.0 | 0.00 | 0.07 | 0.00 | 50 | 1016.8 |
| 20260507174409 | 66 | 177 | 2.0 | 9.0 | 0.00 | 0.07 | 0.00 | 50 | 1017.3 |
| 20260507172909 | 66 | 260 | 2.0 | 11.0 | 0.00 | 0.07 | 0.00 | 58 | 1017.5 |
| 20260507172409 | 66 | 26 | 9.0 | 11.0 | 0.00 | 0.07 | 0.00 | 50 | 1017.6 |
| 20260507171909 | 66 | 123 | 1.0 | 9.0 | 0.00 | 0.07 | 0.00 | 55 | 1017.4 |
| 20260507171409 | 65 | 347 | 1.0 | 9.0 | 0.00 | 0.07 | 0.00 | 53 | 1017.5 |
| 20260507170909 | 65 | 32 | 5.0 | 9.0 | 0.00 | 0.08 | 0.00 | 53 | 1017.6 |
| 20260507165408 | 66 | 330 | 0.0 | 10.0 | 0.00 | 0.08 | 0.00 | 55 | 1017.7 |
| 20260507164408 | 65 | 22 | 6.0 | 8.0 | 0.00 | 0.08 | 0.00 | 53 | 1018.0 |
| 20260507163908 | 66 | 49 | 4.0 | 8.0 | 0.00 | 0.09 | 0.00 | 57 | 1017.9 |
| 20260507163409 | 65 | 13 | 3.0 | 8.0 | 0.00 | 0.09 | 0.00 | 58 | 1018.1 |
| 20260507162908 | 65 | 306 | 3.0 | 8.0 | 0.00 | 0.10 | 0.00 | 57 | 1018.0 |
| 20260507162408 | 65 | 315 | 5.0 | 11.0 | 0.00 | 0.10 | 0.00 | 56 | 1018.0 |
| 20260507161908 | 64 | 117 | 6.0 | 11.0 | 0.00 | 0.10 | 0.00 | 55 | 1017.8 |
| 20260507161408 | 65 | 54 | 3.0 | 9.0 | 0.00 | 0.11 | 0.00 | 57 | 1018.0 |
| 20260507160408 | 64 | 338 | 4.0 | 10.0 | 0.00 | 0.12 | 0.00 | 56 | 1017.8 |
| 20260507155908 | 64 | 29 | 3.0 | 11.0 | 0.00 | 0.12 | 0.00 | 56 | 1017.9 |
| 20260507154908 | 63 | 45 | 6.0 | 10.0 | 0.00 | 0.13 | 0.00 | 56 | 1017.8 |
| 20260507154408 | 63 | 69 | 1.0 | 11.0 | 0.00 | 0.13 | 0.00 | 58 | 1017.7 |
| 20260507153908 | 63 | 5 | 5.0 | 11.0 | 0.00 | 0.13 | 0.00 | 57 | 1017.6 |
| 20260507153408 | 63 | 28 | 4.0 | 9.0 | 0.00 | 0.14 | 0.00 | 56 | 1017.8 |
| 20260507152908 | 63 | 21 | 3.0 | 9.0 | 0.00 | 0.14 | 0.00 | 58 | 1017.7 |
| 20260507152408 | 63 | 35 | 5.0 | 9.0 | 0.00 | 0.15 | 0.00 | 58 | 1017.7 |
| 20260507151908 | 63 | 130 | 2.0 | 8.0 | 0.00 | 0.16 | 0.00 | 66 | 1017.8 |
| 20260507150908 | 62 | 105 | 3.0 | 9.0 | 0.00 | 0.19 | 0.00 | 65 | 1017.9 |
| 20260507150408 | 62 | 36 | 1.0 | 7.0 | 0.00 | 0.19 | 0.00 | 61 | 1018.0 |
| 20260507145908 | 62 | 162 | 5.0 | 7.0 | 0.00 | 0.19 | 0.00 | 67 | 1018.0 |
| 20260507145407 | 61 | 91 | 2.0 | 7.0 | 0.00 | 0.19 | 0.00 | 65 | 1018.2 |
| 20260507144407 | 61 | 86 | 5.0 | 8.0 | 0.00 | 0.20 | 0.00 | 71 | 1018.3 |
| 20260507143907 | 61 | 338 | 2.0 | 8.0 | 0.00 | 0.21 | 0.00 | 71 | 1018.3 |
| 20260507142908 | 60 | 41 | 2.0 | 6.0 | 0.00 | 0.23 | 0.00 | 72 | 1017.9 |
| 20260507142407 | 60 | 294 | 1.0 | 7.0 | 0.00 | 0.25 | 0.00 | 76 | 1017.9 |
| 20260507141908 | 59 | 22 | 2.0 | 8.0 | 0.00 | 0.26 | 0.00 | 75 | 1017.8 |
| 20260507140908 | 59 | 355 | 3.0 | 9.0 | 0.00 | 0.29 | 0.00 | 78 | 1018.1 |
| 20260507140408 | 59 | 28 | 3.0 | 8.0 | 0.00 | 0.30 | 0.00 | 78 | 1018.1 |
| 20260507135907 | 59 | 315 | 2.0 | 5.0 | 0.00 | 0.32 | 0.00 | 79 | 1018.0 |
| 20260507135407 | 58 | 355 | 2.0 | 6.0 | 0.00 | 0.32 | 0.00 | 81 | 1017.9 |
| 20260507134908 | 58 | 15 | 3.0 | 6.0 | 0.00 | 0.33 | 0.00 | 82 | 1017.9 |
| 20260507134408 | 58 | 48 | 1.0 | 8.0 | 0.00 | 0.33 | 0.00 | 83 | 1017.9 |
| 20260507133908 | 57 | 5 | 1.0 | 8.0 | 0.00 | 0.34 | 0.00 | 83 | 1017.7 |
| 20260507133407 | 57 | 317 | 2.0 | 5.0 | 0.00 | 0.34 | 0.00 | 85 | 1017.8 |
| 20260507132907 | 57 | 326 | 2.0 | 5.0 | 0.00 | 0.34 | 0.00 | 87 | 1017.8 |
| 20260507132408 | 56 | 300 | 1.0 | 4.0 | 0.00 | 0.34 | 0.00 | 88 | 1017.8 |
| 20260507131908 | 56 | 15 | 0.0 | 4.0 | 0.00 | 0.34 | 0.00 | 88 | 1017.6 |
| 20260507131407 | 55 | 290 | 1.0 | 3.0 | 0.00 | 0.34 | 0.00 | 89 | 1017.6 |
| 20260507130907 | 55 | 280 | 0.0 | 4.0 | 0.00 | 0.34 | 0.00 | 89 | 1017.6 |
| 20260507124907 | 54 | 19 | 0.0 | 3.0 | 0.00 | 0.34 | 0.00 | 94 | 1017.3 |
| 20260507124407 | 53 | 19 | 0.0 | 3.0 | 0.00 | 0.34 | 0.00 | 94 | 1017.3 |
| 20260507123907 | 53 | 41 | 1.0 | 3.0 | 0.00 | 0.34 | 0.00 | 95 | 1017.3 |
| 20260507123407 | 53 | 350 | 0.0 | 0.0 | 0.00 | 0.34 | 0.00 | 96 | 1017.2 |
| 20260507122907 | 53 | 350 | 0.0 | 0.0 | 0.00 | 0.34 | 0.00 | 96 | 1017.1 |
| 20260507122407 | 52 | 350 | 0.0 | 0.0 | 0.00 | 0.34 | 0.00 | 96 | 1017.0 |
| 20260507121907 | 51 | 329 | 0.0 | 0.0 | 0.00 | 0.34 | 0.00 | 96 | 1017.0 |
| 20260507121407 | 51 | 329 | 0.0 | 0.0 | 0.00 | 0.34 | 0.00 | 96 | 1016.9 |
| 20260507120407 | 50 | 329 | 0.0 | 0.0 | 0.00 | 0.34 | 0.00 | 96 | 1016.7 |
| 20260507115907 | 50 | 329 | 0.0 | 1.0 | 0.00 | 0.34 | 0.00 | 96 | 1016.5 |
| 20260507114906 | 49 | 267 | 0.0 | 0.0 | 0.00 | 0.34 | 0.00 | 96 | 1016.5 |
| 20260507114406 | 48 | 259 | 0.0 | 0.0 | 0.00 | 0.34 | 0.00 | 96 | 1016.4 |
| 20260507113906 | 48 | 259 | 0.0 | 0.0 | 0.00 | 0.34 | 0.00 | 96 | 1016.3 |
| 20260507113406 | 48 | 259 | 0.0 | 0.0 | 0.00 | 0.34 | 0.00 | 96 | 1016.3 |
| 20260507112406 | 48 | 259 | 0.0 | 0.0 | 0.00 | 0.34 | 0.00 | 96 | 1016.3 |
| 20260507111406 | 48 | 345 | 0.0 | 0.0 | 0.00 | 0.34 | 0.00 | 96 | 1016.2 |
| 20260507110906 | 48 | 346 | 0.0 | 0.0 | 0.00 | 0.34 | 0.00 | 96 | 1016.3 |
| 20260507110406 | 48 | 345 | 0.0 | 0.0 | 0.00 | 0.34 | 0.00 | 96 | 1016.3 |
| 20260507105906 | 48 | 346 | 0.0 | 0.0 | 0.00 | 0.34 | 0.00 | 96 | 1016.1 |
| 20260507104906 | 49 | 345 | 0.0 | 0.0 | 0.00 | 0.37 | 0.00 | 96 | 1015.9 |
| 20260507103406 | 49 | 345 | 0.0 | 0.0 | 0.00 | 0.43 | 0.00 | 96 | 1016.2 |
| 20260507102906 | 49 | 345 | 0.0 | 0.0 | 0.00 | 0.44 | 0.00 | 96 | 1016.2 |
| 20260507102406 | 49 | 346 | 0.0 | 0.0 | 0.00 | 0.45 | 0.00 | 96 | 1016.1 |
| 20260507101906 | 49 | 345 | 0.0 | 0.0 | 0.00 | 0.46 | 0.00 | 95 | 1016.1 |
| 20260507100905 | 49 | 345 | 0.0 | 0.0 | 0.00 | 0.51 | 0.00 | 95 | 1015.9 |
| 20260507100405 | 49 | 346 | 0.0 | 0.0 | 0.00 | 0.52 | 0.00 | 95 | 1016.0 |
| 20260507095905 | 49 | 345 | 0.0 | 0.0 | 0.00 | 0.53 | 0.00 | 96 | 1016.1 |
| 20260507095405 | 49 | 345 | 0.0 | 0.0 | 0.00 | 0.55 | 0.00 | 96 | 1015.9 |
| 20260507094905 | 49 | 345 | 0.0 | 0.0 | 0.00 | 0.56 | 0.00 | 95 | 1016.1 |
| 20260507094405 | 49 | 345 | 0.0 | 0.0 | 0.00 | 0.57 | 0.00 | 95 | 1016.1 |
| 20260507093405 | 49 | 345 | 0.0 | 0.0 | 0.00 | 0.59 | 0.00 | 95 | 1016.0 |
| 20260507092905 | 49 | 345 | 0.0 | 0.0 | 0.00 | 0.60 | 0.00 | 95 | 1015.9 |
| 20260507092406 | 50 | 345 | 0.0 | 0.0 | 0.00 | 0.60 | 0.00 | 95 | 1015.7 |
| 20260507091906 | 50 | 345 | 0.0 | 0.0 | 0.00 | 0.61 | 0.00 | 95 | 1015.8 |
| 20260507091405 | 50 | 345 | 0.0 | 0.0 | 0.00 | 0.62 | 0.00 | 95 | 1015.7 |
| 20260507090905 | 50 | 345 | 0.0 | 0.0 | 0.00 | 0.62 | 0.00 | 95 | 1015.7 |
| 20260507085905 | 50 | 345 | 0.0 | 0.0 | 0.00 | 0.63 | 0.00 | 95 | 1015.6 |
| 20260507085405 | 51 | 345 | 0.0 | 0.0 | 0.00 | 0.63 | 0.00 | 95 | 1015.6 |
| 20260507084905 | 51 | 345 | 0.0 | 0.0 | 0.00 | 0.63 | 0.00 | 95 | 1015.5 |
| 20260507084405 | 51 | 345 | 0.0 | 0.0 | 0.00 | 0.63 | 0.00 | 95 | 1015.6 |
| 20260507083905 | 51 | 345 | 0.0 | 0.0 | 0.00 | 0.63 | 0.00 | 95 | 1015.4 |
| 20260507083404 | 51 | 345 | 0.0 | 0.0 | 0.00 | 0.63 | 0.00 | 95 | 1015.4 |
| 20260507082905 | 51 | 345 | 0.0 | 0.0 | 0.00 | 0.64 | 0.00 | 95 | 1015.3 |
| 20260507082405 | 52 | 345 | 0.0 | 0.0 | 0.00 | 0.65 | 0.00 | 95 | 1015.2 |
| 20260507081905 | 52 | 345 | 0.0 | 0.0 | 0.00 | 0.73 | 0.00 | 95 | 1015.3 |
| 20260507080905 | 51 | 345 | 0.0 | 0.0 | 0.00 | 0.83 | 0.00 | 95 | 1015.3 |
| 20260507080405 | 52 | 345 | 0.0 | 0.0 | 0.00 | 0.85 | 0.00 | 95 | 1015.6 |
| 20260507075905 | 52 | 345 | 0.0 | 0.0 | 0.00 | 0.87 | 0.00 | 95 | 1015.6 |
| 20260507075405 | 52 | 345 | 0.0 | 0.0 | 0.00 | 0.89 | 0.00 | 95 | 1015.6 |
| 20260507074905 | 52 | 345 | 0.0 | 0.0 | 0.00 | 0.90 | 0.00 | 95 | 1015.7 |
| 20260507074405 | 52 | 345 | 0.0 | 0.0 | 0.00 | 0.91 | 0.00 | 95 | 1015.6 |
| 20260507073905 | 52 | 345 | 0.0 | 0.0 | 0.00 | 0.92 | 0.00 | 95 | 1015.6 |
| 20260507073404 | 52 | 345 | 0.0 | 0.0 | 0.00 | 0.93 | 0.00 | 95 | 1015.6 |
| 20260507072904 | 52 | 345 | 0.0 | 0.0 | 0.00 | 0.93 | 0.00 | 95 | 1015.6 |
| 20260507072405 | 52 | 345 | 0.0 | 0.0 | 0.00 | 0.93 | 0.00 | 95 | 1015.7 |
| 20260507071905 | 52 | 345 | 0.0 | 0.0 | 0.00 | 0.94 | 0.00 | 95 | 1015.6 |
| 20260507071405 | 52 | 345 | 0.0 | 0.0 | 0.00 | 0.95 | 0.00 | 95 | 1015.6 |
| 20260507070405 | 52 | 345 | 0.0 | 0.0 | 0.00 | 0.95 | 0.00 | 95 | 1015.6 |
| 20260507065905 | 52 | 345 | 0.0 | 0.0 | 0.00 | 0.96 | 0.00 | 94 | 1015.7 |
| 20260507065405 | 52 | 345 | 0.0 | 0.0 | 0.00 | 0.98 | 0.00 | 95 | 1015.7 |
| 20260507063904 | 53 | 345 | 0.0 | 0.0 | 0.00 | 1.07 | 0.00 | 95 | 1015.8 |
| 20260507062904 | 53 | 345 | 0.0 | 0.0 | 0.00 | 1.11 | 0.00 | 94 | 1015.5 |
| 20260507062404 | 53 | 345 | 0.0 | 0.0 | 0.00 | 1.16 | 0.00 | 94 | 1015.7 |
| 20260507061904 | 53 | 345 | 0.0 | 0.0 | 0.00 | 1.16 | 0.00 | 94 | 1015.8 |
| 20260507061404 | 53 | 345 | 0.0 | 0.0 | 0.00 | 1.16 | 0.00 | 94 | 1016.0 |
| 20260507060905 | 53 | 345 | 0.0 | 0.0 | 0.00 | 1.16 | 0.00 | 94 | 1015.9 |
| 20260507055904 | 53 | 345 | 0.0 | 2.0 | 0.00 | 1.17 | 0.00 | 94 | 1015.8 |
| 20260507054904 | 53 | 345 | 0.0 | 4.0 | 0.00 | 1.17 | 0.00 | 94 | 1015.7 |
| 20260507054404 | 53 | 345 | 1.0 | 4.0 | 0.00 | 1.17 | 0.00 | 94 | 1015.5 |
| 20260507053905 | 53 | 355 | 2.0 | 3.0 | 0.00 | 1.17 | 0.00 | 94 | 1015.7 |
| 20260507052904 | 53 | 351 | 2.0 | 3.0 | 0.00 | 1.17 | 0.00 | 94 | 1015.5 |
| 20260507052405 | 53 | 336 | 0.0 | 2.0 | 0.00 | 1.17 | 0.00 | 94 | 1015.5 |
| 20260507051404 | 53 | 336 | 0.0 | 0.0 | 0.00 | 1.17 | 0.00 | 95 | 1015.6 |
| 20260507050904 | 53 | 336 | 0.0 | 0.0 | 0.00 | 1.17 | 0.00 | 95 | 1015.3 |
| 20260507050404 | 53 | 336 | 0.0 | 0.0 | 0.00 | 1.17 | 0.00 | 95 | 1015.2 |
| 20260507045904 | 53 | 336 | 0.0 | 0.0 | 0.00 | 1.17 | 0.00 | 95 | 1015.2 |
| 20260507045404 | 53 | 336 | 0.0 | 0.0 | 0.00 | 1.17 | 1.17 | 95 | 1015.2 |
| 20260507043904 | 53 | 336 | 0.0 | 0.0 | 0.00 | 1.17 | 1.17 | 95 | 1015.2 |
| 20260507043404 | 53 | 336 | 0.0 | 0.0 | 0.00 | 1.17 | 1.17 | 95 | 1015.2 |
| 20260507042904 | 53 | 336 | 0.0 | 0.0 | 0.00 | 1.17 | 1.17 | 95 | 1015.5 |
| 20260507042404 | 53 | 336 | 0.0 | 0.0 | 0.00 | 1.17 | 1.17 | 94 | 1015.4 |
| 20260507041904 | 53 | 336 | 0.0 | 0.0 | 0.00 | 1.17 | 1.17 | 95 | 1015.7 |
| 20260507041404 | 53 | 336 | 0.0 | 0.0 | 0.00 | 1.17 | 1.17 | 95 | 1015.4 |
| 20260507040404 | 53 | 336 | 0.0 | 0.0 | 0.00 | 1.17 | 1.17 | 95 | 1015.4 |
| 20260507035904 | 53 | 336 | 0.0 | 0.0 | 0.00 | 1.17 | 1.17 | 95 | 1015.5 |
| 20260507035403 | 53 | 336 | 0.0 | 0.0 | 0.00 | 1.17 | 1.17 | 95 | 1015.6 |